TimePST,TemperatureF,Dew PointF,Humidity,Sea Level PressureIn,VisibilityMPH,Wind Direction,Wind SpeedMPH,Gust SpeedMPH,PrecipitationIn,Events,Conditions,WindDirDegrees,DateUTC
12:53 AM,57.0,48.0,72,30.16,10.0,South,6.9,-,N/A,,Mostly Cloudy,180,2012-11-20 08:53:00
1:53 AM,57.0,48.0,72,30.15,10.0,South,6.9,-,N/A,,Overcast,190,2012-11-20 09:53:00
2:53 AM,55.9,48.9,77,30.14,10.0,South,3.5,-,N/A,,Overcast,180,2012-11-20 10:53:00
3:48 AM,53.6,48.2,82,30.13,10.0,SSE,5.8,-,N/A,,Overcast,150,2012-11-20 11:48:00
3:53 AM,54.0,48.9,83,30.13,10.0,SSE,4.6,-,N/A,,Overcast,160,2012-11-20 11:53:00
4:53 AM,53.1,48.0,83,30.13,10.0,SSE,3.5,-,N/A,,Overcast,150,2012-11-20 12:53:00
5:53 AM,53.1,48.9,86,30.14,9.0,SSE,4.6,-,N/A,,Overcast,160,2012-11-20 13:53:00
6:08 AM,51.8,48.2,88,30.14,8.0,SSE,3.5,-,N/A,,Overcast,150,2012-11-20 14:08:00
6:30 AM,53.6,48.2,82,30.14,9.0,SSE,4.6,-,N/A,,Overcast,160,2012-11-20 14:30:00
6:53 AM,52.0,48.9,89,30.14,9.0,SE,4.6,-,N/A,,Overcast,140,2012-11-20 14:53:00
7:20 AM,51.8,50.0,94,30.14,5.0,SSE,4.6,-,0.00,Rain,Light Rain,160,2012-11-20 15:20:00
7:53 AM,52.0,50.0,93,30.14,5.0,SSE,4.6,-,0.00,,Overcast,160,2012-11-20 15:53:00
8:53 AM,53.1,51.1,93,30.14,4.0,Calm,Calm,-,0.01,Rain,Light Rain,0,2012-11-20 16:53:00
9:53 AM,57.0,53.1,87,30.13,10.0,South,4.6,-,0.00,,Overcast,180,2012-11-20 17:53:00
10:23 AM,60.8,53.6,77,30.13,10.0,South,3.5,-,N/A,,Overcast,180,2012-11-20 18:23:00
11:53 AM,64.0,55.9,75,30.09,10.0,South,8.1,-,0.00,,Overcast,170,2012-11-20 19:53:00
12:53 PM,64.0,54.0,70,30.06,10.0,South,10.4,-,N/A,,Overcast,180,2012-11-20 20:53:00
1:53 PM,64.9,54.0,68,30.05,10.0,South,12.7,17.3,N/A,,Overcast,180,2012-11-20 21:53:00
2:41 PM,60.8,57.2,88,30.05,2.0,South,8.1,-,0.02,Rain,Light Rain,190,2012-11-20 22:41:00
2:53 PM,60.1,57.0,90,30.05,2.5,South,9.2,-,0.04,Rain,Light Rain,180,2012-11-20 22:53:00
3:05 PM,59.0,57.2,94,30.04,3.0,SSE,4.6,-,0.01,Rain,Light Rain,160,2012-11-20 23:05:00
3:42 PM,60.8,57.2,88,30.04,10.0,South,6.9,-,0.01,,Overcast,180,2012-11-20 23:42:00
3:53 PM,61.0,55.9,83,30.04,10.0,South,10.4,17.3,0.01,,Overcast,190,2012-11-20 23:53:00
4:41 PM,60.8,55.4,82,30.03,10.0,South,12.7,-,N/A,,Overcast,180,2012-11-21 00:41:00
4:53 PM,61.0,55.9,83,30.03,10.0,South,12.7,20.7,N/A,,Overcast,190,2012-11-21 00:53:00
5:53 PM,60.1,55.0,83,30.03,10.0,South,6.9,18.4,N/A,,Mostly Cloudy,170,2012-11-21 01:53:00
6:53 PM,60.1,55.0,83,30.03,10.0,SSE,9.2,-,N/A,,Overcast,160,2012-11-21 02:53:00
7:53 PM,60.1,55.0,83,30.03,10.0,South,8.1,-,0.00,,Overcast,180,2012-11-21 03:53:00
8:53 PM,60.1,55.0,83,30.02,9.0,South,11.5,-,0.01,Rain,Light Rain,170,2012-11-21 04:53:00
9:18 PM,59.0,55.4,88,30.04,7.0,SW,5.8,-,0.02,Rain,Light Rain,220,2012-11-21 05:18:00
9:53 PM,57.9,57.0,97,30.07,4.0,SW,6.9,-,0.08,Rain,Light Rain,220,2012-11-21 05:53:00
10:04 PM,57.2,57.2,100,30.07,2.5,South,9.2,-,0.03,Rain,Rain,190,2012-11-21 06:04:00
10:12 PM,57.2,57.2,100,30.06,3.0,South,5.8,-,0.06,Rain,Rain,190,2012-11-21 06:12:00
10:19 PM,57.2,57.2,100,30.07,4.0,SSW,4.6,-,0.06,Rain,Light Rain,200,2012-11-21 06:19:00
10:53 PM,57.9,57.0,97,30.07,3.0,SSW,6.9,-,0.13,Rain,Rain,200,2012-11-21 06:53:00
11:00 PM,57.2,57.2,100,30.07,2.5,South,6.9,-,0.02,Rain,Rain,190,2012-11-21 07:00:00
11:08 PM,57.2,57.2,100,30.06,5.0,South,5.8,-,0.03,Rain,Light Rain,190,2012-11-21 07:08:00
11:49 PM,57.2,57.2,100,30.07,10.0,South,4.6,-,0.06,,Overcast,180,2012-11-21 07:49:00
11:53 PM,57.9,57.0,97,30.07,10.0,South,4.6,-,0.06,,Overcast,180,2012-11-21 07:53:00